Weather History for Covington, KY

Change the Weather History Date:

Friday, December 6, 2013

  Actual Average Record
Temperature  
Mean Temperature 30 °F 37 °F  
Max Temperature 32 °F 44 °F 73 °F (1998)
Min Temperature 27 °F 29 °F -3 °F (1977)
Degree Days  
Heating Degree Days 35 28  
Month to date heating degree days 120 164  
Since 1 July heating degree days 1156 1124  
Cooling Degree Days 0 0  
Month to date cooling degree days 0 0  
Year to date cooling degree days 1150 1121  
Moisture  
Dew Point 27 °F    
Average Humidity 93    
Maximum Humidity 100    
Minimum Humidity 85    
Precipitation  
Precipitation 0.78 in 0.11 in 1.27 in (1957)
Month to date precipitation 1.61 0.66  
Year to date precipitation 46.18 39.81  
Snow  
Snow 5.30 in 0.10 in 3.60 in (1977)
Month to date snowfall 5.3 0.6  
Since 1 July snowfall 7.7 1.4  
Snow Depth 0.00 in    
Sea Level Pressure  
Sea Level Pressure 30.22 in    
Wind  
Wind Speed 10 mph (North)    
Max Wind Speed 20 mph    
Max Gust Speed 26 mph    
Visibility 3 miles    
Events Fog , Rain , Snow    
T = Trace of Precipitation, MM = Missing Value Source: NWS Daily Summary

Daily Weather History Graph

Daily Weather History Graph

Search for Another Location

Airport:

Trip Planner

Search our weather history database for the weather conditions in past years. The results will help you decide how hot, cold, wet, or windy it might be!

Date:

Astronomy

Dec. 06, 2013 Rise Set
Actual Time 7:43 AM EST 5:16 PM EST
Civil Twilight 7:13 AM EST 5:45 PM EST
Nautical Twilight 6:40 AM EST 6:19 PM EST
Astronomical Twilight 6:08 AM EST 6:51 PM EST
Moon 10:49 AM EST (12/6) 9:45 PM EST (12/6)
Length of Visible Light 10h 31m
Length of Day
9h 32m
Waxing Crescent, 19% of the Moon is Illuminated
Dec 6
Waxing Crescent
Dec 9
First Quarter
Dec 17
Full
Dec 25
Last Quarter
Jan 1
New

Hourly Weather History & Observations

Time (EST) Temp. Windchill Dew Point Humidity Pressure Visibility Wind Dir Wind Speed Gust Speed Precip Events Conditions
12:52 AM 32.0 °F 22.5 °F 28.9 °F 88% 30.14 in 8.0 mi NNW 12.7 mph - N/A Rain Light Freezing Rain
1:52 AM 30.9 °F 23.5 °F 28.9 °F 92% 30.14 in 7.0 mi North 8.1 mph - 0.04 in Rain Light Freezing Rain
2:33 AM 30.2 °F 21.3 °F 28.4 °F 93% 30.13 in 5.0 mi North 10.4 mph - 0.01 in Rain Light Freezing Rain
2:52 AM 30.9 °F 22.8 °F 28.9 °F 92% 30.15 in 4.0 mi North 9.2 mph - 0.03 in Rain Light Freezing Rain
3:12 AM 32.0 °F 24.2 °F 30.2 °F 93% 30.17 in 4.0 mi NNW 9.2 mph - 0.04 in Rain Light Freezing Rain
3:40 AM 30.2 °F 20.2 °F 28.4 °F 93% 30.18 in 5.0 mi North 12.7 mph - 0.08 in Rain Light Freezing Rain
3:52 AM 30.9 °F 24.3 °F 28.9 °F 92% 30.21 in 6.0 mi NNW 6.9 mph - 0.09 in Rain Light Freezing Rain
4:37 AM 30.2 °F 21.3 °F 28.4 °F 93% 30.17 in 5.0 mi North 10.4 mph - 0.02 in Rain Light Freezing Rain
4:52 AM 30.0 °F 21.1 °F 28.9 °F 96% 30.19 in 4.0 mi NNW 10.4 mph - 0.03 in Rain Light Freezing Rain
5:52 AM 30.0 °F 23.2 °F 28.0 °F 92% 30.19 in 4.0 mi North 6.9 mph - 0.02 in Rain Light Freezing Rain
6:52 AM 30.0 °F 21.7 °F 28.0 °F 92% 30.19 in 5.0 mi North 9.2 mph - 0.01 in Rain , Snow Light Freezing Rain
7:38 AM 28.4 °F 19.1 °F 26.6 °F 93% 30.20 in 6.0 mi NNW 10.4 mph - 0.01 in Snow Light Snow
7:52 AM 28.9 °F 20.4 °F 27.0 °F 92% 30.22 in 6.0 mi North 9.2 mph 18.4 mph 0.01 in Snow Light Snow
8:06 AM 28.4 °F 18.0 °F 26.6 °F 93% 30.18 in 4.0 mi North 12.7 mph - 0.00 in Snow Light Freezing Drizzle
8:28 AM 28.4 °F 19.1 °F 26.6 °F 93% 30.19 in 4.0 mi North 10.4 mph - 0.00 in Snow Light Snow
8:52 AM 28.9 °F 19.2 °F 27.0 °F 92% 30.23 in 4.0 mi North 11.5 mph - 0.00 in Snow Light Snow
9:35 AM 28.4 °F 18.5 °F 26.6 °F 93% 30.21 in 4.0 mi North 11.5 mph 19.6 mph 0.00 in Rain , Snow Light Freezing Rain
9:52 AM 28.9 °F 19.2 °F 27.0 °F 92% 30.23 in 3.0 mi North 11.5 mph 21.9 mph 0.01 in Rain , Snow Light Freezing Rain
10:52 AM 30.0 °F 20.5 °F 27.0 °F 88% 30.24 in 3.0 mi North 11.5 mph - 0.01 in Rain Light Freezing Rain
11:42 AM 28.4 °F 17.5 °F 26.6 °F 93% 30.21 in 2.5 mi North 13.8 mph - 0.03 in Rain Light Freezing Rain
11:52 AM 28.9 °F 18.6 °F 27.0 °F 92% 30.24 in 2.5 mi North 12.7 mph - 0.05 in Rain Light Freezing Rain
12:06 PM 28.4 °F 16.6 °F 26.6 °F 93% 30.22 in 2.5 mi North 16.1 mph 26.5 mph 0.00 in Snow Light Ice Pellets
12:21 PM 28.4 °F 16.6 °F 26.6 °F 93% 30.21 in 2.0 mi North 16.1 mph - 0.01 in Snow Light Snow
12:39 PM 28.4 °F 16.6 °F 26.6 °F 93% 30.19 in 1.5 mi North 16.1 mph - 0.03 in Snow Light Snow
12:52 PM 28.0 °F 16.5 °F 26.1 °F 92% 30.20 in 1.5 mi North 15.0 mph - 0.04 in Snow Light Snow
1:17 PM 28.4 °F 18.0 °F 26.6 °F 93% 30.18 in 1.2 mi North 12.7 mph - 0.02 in Snow Light Snow
1:43 PM 28.4 °F 15.8 °F 26.6 °F 93% 30.15 in 2.5 mi North 18.4 mph - 0.05 in Snow Light Snow
1:52 PM 28.9 °F 16.1 °F 26.1 °F 89% 30.17 in 2.5 mi North 19.6 mph - 0.06 in Snow Light Ice Pellets
2:19 PM 28.4 °F 16.2 °F 26.6 °F 93% 30.16 in 3.0 mi North 17.3 mph 23.0 mph 0.02 in Snow Light Ice Pellets
2:22 PM 28.4 °F 17.5 °F 26.6 °F 93% 30.17 in 2.5 mi North 13.8 mph 23.0 mph 0.02 in Snow Light Ice Pellets
2:27 PM 28.4 °F 16.2 °F 26.6 °F 93% 30.17 in 1.5 mi North 17.3 mph 23.0 mph 0.02 in Snow Light Snow
2:40 PM 28.4 °F 16.6 °F 26.6 °F 93% 30.16 in 1.0 mi North 16.1 mph - 0.03 in Snow Light Snow
2:52 PM 28.0 °F 17.5 °F 26.1 °F 92% 30.18 in 0.8 mi North 12.7 mph - 0.04 in Snow Light Snow
3:09 PM 28.4 °F 19.1 °F 26.6 °F 93% 30.18 in 0.5 mi North 10.4 mph - 0.03 in Fog , Snow Snow
3:39 PM 28.4 °F 19.1 °F 26.6 °F 93% 30.20 in 0.2 mi North 10.4 mph - 0.06 in Fog , Snow Heavy Snow
3:52 PM 28.0 °F 19.3 °F 26.1 °F 92% 30.22 in 0.2 mi North 9.2 mph - 0.08 in Fog , Snow Heavy Snow
4:30 PM 28.4 °F 19.1 °F 26.6 °F 93% 30.20 in 0.1 mi North 10.4 mph - 0.07 in Fog , Snow Heavy Snow
4:52 PM 28.0 °F 18.1 °F 26.1 °F 92% 30.24 in 0.2 mi North 11.5 mph - 0.11 in Fog , Snow Heavy Snow
5:18 PM 28.4 °F 19.7 °F 26.6 °F 93% 30.22 in 0.8 mi North 9.2 mph - 0.04 in Snow Light Snow
5:52 PM 27.0 °F 15.6 °F 25.0 °F 92% 30.26 in 1.0 mi North 13.8 mph - 0.06 in Snow Light Snow
6:18 PM 26.6 °F 17.5 °F 26.6 °F 100% 30.28 in 0.8 mi NNW 9.2 mph - 0.02 in Snow Light Snow
6:33 PM 26.6 °F 16.8 °F 26.6 °F 100% 30.24 in 0.8 mi North 10.4 mph - 0.04 in Snow Light Snow
6:52 PM 27.0 °F 18.0 °F 26.1 °F 96% 30.29 in 0.5 mi North 9.2 mph - 0.06 in Fog , Snow Snow
7:11 PM 26.6 °F 18.2 °F 26.6 °F 100% 30.28 in 1.2 mi North 8.1 mph - 0.02 in Snow Light Snow
7:52 PM 27.0 °F 18.7 °F 26.1 °F 96% 30.30 in 1.5 mi North 8.1 mph - 0.03 in Snow Light Snow
8:03 PM 26.6 °F 18.2 °F 26.6 °F 100% 30.28 in 2.5 mi North 8.1 mph - 0.00 in Snow Light Snow
8:35 PM 26.6 °F 16.2 °F 24.8 °F 93% 30.31 in 3.0 mi NNW 11.5 mph - 0.00 in Snow Light Snow
8:52 PM 27.0 °F 17.3 °F 25.0 °F 92% 30.35 in 2.5 mi North 10.4 mph - 0.00 in Snow Light Snow
9:07 PM 26.6 °F 16.8 °F 24.8 °F 93% 30.32 in 1.5 mi North 10.4 mph - 0.00 in Snow Light Snow
9:40 PM 26.6 °F 18.2 °F 24.8 °F 93% 30.33 in 1.5 mi North 8.1 mph - 0.00 in Snow Light Snow
9:52 PM 27.0 °F 18.0 °F 25.0 °F 92% 30.36 in 3.0 mi North 9.2 mph - 0.00 in Snow Light Snow
10:10 PM 26.6 °F 16.8 °F 24.8 °F 93% 30.33 in 4.0 mi North 10.4 mph - 0.00 in Snow Light Snow
10:52 PM 27.0 °F 18.7 °F 25.0 °F 92% 30.39 in 4.0 mi NNW 8.1 mph - 0.00 in Snow Light Snow
11:52 PM 27.0 °F 17.3 °F 24.1 °F 89% 30.40 in 7.0 mi North 10.4 mph - 0.00 in   Overcast